Regional Weather Roundup
Issued by NWS Lake Charles, LA

Home | Current Version | Previous Version | Text Only | Print | Product List | Glossary On
Versions: 1 2 3 4 5 6 7 8 9 10 11 12 13 14 15 16 17 18 19 20 21 22 23 24 25 26 27
000
ASUS44 KLCH 070910
RWRLCH
REGIONAL WEATHER ROUNDUP
NATIONAL WEATHER SERVICE LAKE CHARLES LA
300 AM CST WED DEC 07 2016

Note: "fair" indicates few or no clouds below 12,000 feet with no
significant weather and/or obstructions to visibility.


ACROSS SOUTHEAST TEXAS

CITY           SKY/WX    TMP DP  RH WIND       PRES   REMARKS
BEAUMONT       CLOUDY    55  52  89 N6        30.03S
BEAUMONT CITY  CLOUDY    54  52  92 N7        30.04S
ORANGE         CLOUDY   N/A N/A N/A CALM      30.05S
JASPER         CLOUDY    52  52  99 CALM      30.07R FOG
$$

ACROSS CENTRAL LOUISIANA

CITY           SKY/WX    TMP DP  RH WIND       PRES   REMARKS
LEESVILLE      CLOUDY    52  51  98 CALM      30.05R
FULLERTON      CLOUDY    51  51 100 CALM      30.03R
ALEXANDRIA INT CLOUDY    51  49  92 E3        30.04R
ESLER FIELD    CLOUDY    51  50  96 CALM      30.05S
DERIDDER       CLOUDY    53  52  96 CALM      30.06R FOG
OAKDALE        CLOUDY    53  51  94 CALM      30.05R
OPELOUSAS      CLOUDY    52  50  94 CALM      30.05R
$$

ACROSS SOUTHWEST AND SOUTH CENTRAL LOUISIANA

CITY           SKY/WX    TMP DP  RH WIND       PRES   REMARKS
SULPHUR        CLOUDY    56  54  93 NE3       30.04S
LAKE CHARLES   CLOUDY    55  53  93 NE7       30.03S
CHENNAULT INT  CLOUDY    54  52  93 NE7       30.04S
CAMERON PHI    NOT AVBL
DEQUINCY       CLOUDY    53  51  93 CALM      30.04S
JENNINGS       CLOUDY    54  52  94 E5        30.05R
LAFAYETTE      CLOUDY    55  53  93 NE3       30.04R
NEW IBERIA     CLOUDY    55  51  86 E6        30.04R
ABBEVILLE      CLOUDY    54  54 100 NE3       30.04R
PATTERSON      CLOUDY   N/A N/A N/A E7        30.04R
SALT POINT     NOT AVBL
$$

SELECTED SITES ACROSS THE REGION

CITY           SKY/WX    TMP DP  RH WIND       PRES   REMARKS
HOUSTON BUSH   PTCLDY    50  47  89 N5        30.04S
HOUSTON HOBBY  CLOUDY    51  49  92 N5        30.04S
GALVESTON      CLEAR     56  52  86 N10       30.04R
COLLEGE STAT   CLOUDY    50  47  89 N8        30.05F
CONROE         CLOUDY    51  47  86 N6        30.04S
HUNTSVILLE     CLOUDY    50  47  89 CALM      30.05S
LUFKIN         CLOUDY    50  49  96 CALM      30.05R
SHREVEPORT     CLOUDY    51  49  92 CALM      30.06R
MONROE         CLOUDY    48  45  89 NE3       30.08R
NATCHEZ MS     CLOUDY    48  45  87 CALM      30.05S
BATON ROUGE    CLOUDY    53  51  93 E3        30.04S
N.O. INTL ARPT CLOUDY    56  55  97 N6        30.04S
SLIDELL        CLOUDY    53  51  93 N5        30.04R
$$

MARINE REPORTS

STATION/POSITION TIME  SKY/WX   TEMP    WIND        PRES    VSBY
                                AIR SEA DIR/SP/G
                 (UTC)          (F)     (DEG/KT/KT) (MB)    (MI)
BUOY 30 S HIGH I 0850            58 65  360/ 14/ 16 1016.5R
WVE H/P(F/S)=  2/ 8

SEA RIM ST PARK  0900            54     360/  7/  8 1017.3R
PORT ARTHUR      0848               58   10/  5/  7 1017.0R
SABINE PASS N    0848            55 60   10/  4/  5 1017.9R
TEXAS POINT      NOT AVBL
CALCASIEU PASS   0848            55 60   40/  6/  8   N/A
LK CHARLES BEACH 0848            54 57              1017.5R
MARSH ISLAND     0800            57                   N/A
FRESH WATER LOCK 0848            56 61   40/  6/ 10 1017.2R
AMERADA PASS     0848            55 61   70/  5/  9 1016.7R
$$




USA.gov is the U.S. government's official web portal to all federal, state and local government web resources and services.